Regional Weather Roundup
Issued by NWS

Home | Current Version | Previous Version | Graphics & Text | Print | Product List | Glossary On
Versions: 1 2 3 4 5 6 7 8 9 10 11 12 13 14 15 16 17 18 19 20 21 22 23 24 25 26 27 28 29 30 31 32 33 34 35 36 37 38 39 40 41 42 43 44 45 46 47 48 49 50
000
ASUS43 KLMK 231410
RWRKY
KENTUCKY REGIONAL WEATHER ROUNDUP
NATIONAL WEATHER SERVICE LOUISVILLE KY
1000 AM EDT TUE SEP 23 2014

NOTE "FAIR" INDICATES FEW OR NO CLOUDS BELOW 12,000 FEET
WITH NO SIGNIFICANT WEATHER AND/OR OBSTRUCTIONS TO VISIBILITY.

KYZ001>023-026-027-061>063-070>075-231500-
WESTERN AND SOUTH CENTRAL KENTUCKY

CITY           SKY/WX    TMP DP  RH WIND       PRES   REMARKS
PADUCAH        SUNNY     61  51  70 E3        30.29R
HENDERSON      SUNNY     57  48  72 E7        30.33R
OWENSBORO      SUNNY     59  47  64 E5        30.32R
HOPKINSVILLE   SUNNY     58  48  70 E7        30.29R
BOWLING GREEN  SUNNY     57  47  69 E7        30.30S
GLASGOW        SUNNY     56  47  71 E6        30.30R
$$

KYZ024-025-028>034-038-045-046-053-231500-
NORTH CENTRAL KENTUCKY

CITY           SKY/WX    TMP DP  RH WIND       PRES   REMARKS
LOUISVILLE/SDF SUNNY     59  45  59 CALM      30.34R
LOUISVILLE/LOU SUNNY     60  46  59 CALM      30.34R
FORT KNOX      SUNNY     57  46  67 NE6       30.31S
$$

KYZ035>037-039>044-047>052-055>060-089>105-231500-
NORTHEAST KENTUCKY

CITY           SKY/WX    TMP DP  RH WIND       PRES   REMARKS
LEXINGTON      SUNNY     61  48  62 NE6       30.33R
COVINGTON      SUNNY     58  45  62 SE3       30.35R
FRANKFORT      SUNNY     56  46  69 NE5       30.33R
$$

KYZ054-064>069-076>088-106>120-231500-
SOUTHEAST KENTUCKY

CITY           SKY/WX    TMP DP  RH WIND       PRES   REMARKS
JACKSON        SUNNY     55  48  77 CALM      30.31S
LONDON         SUNNY     58  50  75 NE3       30.31R
SOMERSET       SUNNY     55  46  71 CALM      30.32R
MIDDLESBORO    CLOUDY    48  48  99 CALM      30.32R
MONTICELLO     SUNNY     58  52  80 CALM      30.32R
$$



USA.gov is the U.S. government's official web portal to all federal, state and local government web resources and services.